Content
SEND FEEDBACK

Daily
Averages
Monthly
Summary
Thailand

RAYONG, THAILAND


Home > Asia > Thailand
Elevation: 16 feet     Latitude: 12 38N     Longitude: 101 21E

WEATHER
 
SELECT A DAY
Number of Records: 203,475;   Date Range: 7/1/96 - 9/30/14
 
SHARE

PRINT THIS DATA

[ ← Previous Day ]
WEATHER ALMANAC - APRIL 10, 2013
[ Next Day → ]
[ °C ]   °F
Weather ElementAverageHighLow
Temperature85.4 °F89.6 °F (2:00 pm)77 °F (6:30 am)
Dewpoint75.5 °F78.8 °F (5:30 pm)73.4 °F (6:30 am)
Humidity72.5 %89 % (6:30 am)62 % (2:00 pm)
Barometer29.77 in29.83 in (8:00 am)29.68 in (4:30 pm)
Wind Speed5.8 mph9.2 mph (4:00 pm)
Weather ElementAverage
Visibility1.4 mi
Wind DirectionSSE (172.1 °)

Weather ElementTotal
Precipitation---
Cooling Degree Days18.3 (Base 65)
Growing Degree Days33.3 (Base 50)
Averaged from 42 records on April 10, 2013
WEATHER CONDITIONS BREAKOUT
WIND DIRECTION BREAKOUT
WEATHER BY HOUR - APRIL 10, 2013
[ °C ]   °F
Local TimeTemperatureDewpointHumidityBarometerVisibilityWind DirectionWind SpeedGust SpeedPrecipitationEventsConditions
12:30 AM84.2 °F75.2 °F74 %29.80 in1.9 miSouth (190°)4.6 mphScattered Clouds
1:00 AM84.2 °F75.2 °F74 %29.77 in1.9 miSW (220°)4.6 mphScattered Clouds
1:30 AM84.2 °F75.2 °F74 %29.77 in1.9 miSW (220°)4.6 mphScattered Clouds
2:00 AM82.4 °F75.2 °F79 %29.77 in1.9 miSW (220°)4.6 mphScattered Clouds
2:30 AM82.4 °F75.2 °F79 %29.74 in1.9 miSW (230°)4.6 mphScattered Clouds
3:30 AM80.6 °F75.2 °F84 %29.74 in1.9 miSouth (180°)4.6 mphScattered Clouds
4:30 AM80.6 °F75.2 °F84 %29.74 in1.9 miSouth (180°)4.6 mphScattered Clouds
5:00 AM80.6 °F75.2 °F84 %29.74 in1.9 miCalmScattered Clouds
5:30 AM80.6 °F75.2 °F84 %29.74 in1.9 miCalmScattered Clouds
6:30 AM77.0 °F73.4 °F89 %29.77 in1.9 miCalmMostly Cloudy
7:00 AM77.0 °F73.4 °F89 %29.80 in1.2 miNNW (340°)3.5 mphMostly Cloudy
7:30 AM80.6 °F75.2 °F84 %29.80 in1.2 miCalmMostly Cloudy
8:00 AM84.2 °F75.2 °F74 %29.83 in1.2 miSouth (190°)4.6 mphMostly Cloudy
8:30 AM87.8 °F75.2 °F66 %29.83 in1.2 miSSW (200°)6.9 mphMostly Cloudy
9:00 AM87.8 °F75.2 °F66 %29.83 in1.2 miSSW (200°)6.9 mphMostly Cloudy
9:30 AM87.8 °F75.2 °F66 %29.83 in1.2 miSouth (190°)6.9 mphMostly Cloudy
10:00 AM87.8 °F75.2 °F66 %29.83 in1.2 miSSW (200°)6.9 mphMostly Cloudy
10:30 AM87.8 °F75.2 °F66 %29.83 in1.2 miSouth (190°)6.9 mphMostly Cloudy
11:00 AM87.8 °F75.2 °F66 %29.83 in1.2 miSouth (180°)6.9 mphMostly Cloudy
11:30 AM87.8 °F75.2 °F66 %29.83 in1.2 miSouth (190°)5.8 mphMostly Cloudy
12:30 PM87.8 °F75.2 °F66 %29.80 in1.2 miSouth (180°)6.9 mphMostly Cloudy
1:00 PM87.8 °F75.2 °F66 %29.80 in1.2 miSouth (180°)6.9 mphMostly Cloudy
1:30 PM87.8 °F75.2 °F66 %29.77 in1.2 miSouth (180°)6.9 mphMostly Cloudy
2:00 PM89.6 °F75.2 °F62 %29.74 in1.2 miSouth (190°)6.9 mphMostly Cloudy
2:30 PM89.6 °F75.2 °F62 %29.74 in1.2 miSouth (180°)6.9 mphHaze
3:00 PM89.6 °F75.2 °F62 %29.71 in1.2 miSouth (180°)6.9 mphMostly Cloudy
3:30 PM89.6 °F75.2 °F62 %29.71 in1.2 miSSE (160°)6.9 mphHaze
4:00 PM89.6 °F75.2 °F62 %29.71 in1.2 miSouth (170°)9.2 mphMostly Cloudy
4:30 PM87.8 °F75.2 °F66 %29.68 in1.2 miSouth (190°)6.9 mphMostly Cloudy
5:00 PM86.0 °F75.2 °F70 %29.71 in1.2 miSouth (190°)6.9 mphMostly Cloudy
5:30 PM86.0 °F78.8 °F79 %29.71 in1.2 miSouth (180°)9.2 mphMostly Cloudy
6:00 PM86.0 °F77.0 °F74 %29.74 in1.2 miSouth (190°)6.9 mphMostly Cloudy
6:30 PM86.0 °F77.0 °F74 %29.74 in1.2 miSouth (190°)5.8 mphMostly Cloudy
7:00 PM86.0 °F77.0 °F74 %29.77 in1.2 miSSE (150°)6.9 mphMostly Cloudy
7:30 PM86.0 °F77.0 °F74 %29.74 in1.2 miSouth (190°)4.6 mphMostly Cloudy
8:00 PM86.0 °F77.0 °F74 %29.77 in1.2 miSSW (200°)6.9 mphMostly Cloudy
8:30 PM86.0 °F77.0 °F74 %29.80 in1.2 miSSE (160°)9.2 mphMostly Cloudy
9:00 PM86.0 °F77.0 °F74 %29.80 in1.2 miSouth (170°)6.9 mphMostly Cloudy
9:30 PM84.2 °F75.2 °F74 %29.80 in1.2 miSouth (170°)6.9 mphMostly Cloudy
10:00 PM86.0 °F75.2 °F70 %29.80 in1.2 miSouth (170°)6.9 mphMostly Cloudy
10:30 PM86.0 °F75.2 °F70 %29.80 in1.2 miSouth (170°)6.9 mphMostly Cloudy
11:00 PM86.0 °F77.0 °F74 %29.80 in1.2 miSouth (170°)6.9 mphMostly Cloudy
Hourly data recorded from VTBU, located miles away from Rayong, Thailand







STORIES FROM OUR PARTNERS